[[{"header":{"parameterUnit":"m.s-1","parameterCategory":2,"la1":30.2991,"la2":30.254,"lo1":-89.0895,"lo2":-89.0444,"dy":0.0017,"dx":0.0017,"nx":28,"ny":28,"refTime":"2024-07-12T21:00:00:Z","depth":"0","parameterNumber":2,"parameterNumberName":"U-component_of_CURRENTS"},"data":[0,0,0,0,0,0,0,0,0,0,0,0,0,0,0,0,0,0,0,0,0,0,0,0,0,0,0,0,0,0,0,0,0,0,0,0,0,0,0,0,0,0,0,0,0,0,0,0,0,0,0,0,0,0,0,0,0,0,0.1941,0.1942,0,0.1987,0.1987,0.1987,0.1988,0.1988,0.1988,0.1988,0.1977,0.1977,0.1977,0,0,0,0,0,0,0,0,0,0,0,0,0,0.1817,0.1819,0.1941,0.1942,0.1943,0.1987,0.1987,0.1987,0.1988,0.1988,0.1988,0.1987,0.1977,0.1977,0.1977,0,0,0,0,0,0,0,0,0,0,0,0,0,0.1864,0.182,0.1941,0.1952,0.1954,0.1987,0.1987,0.1987,0.1988,0.1988,0.1988,0.1987,0.1977,0.1977,0.1977,0.1981,0,0,0.1976,0.1976,0,0,0,0,0,0,0,0,0.1861,0.1868,0.1949,0.1951,0.1953,0.1985,0.194,0.1984,0.1988,0.197,0.1988,0.1987,0.1978,0.1977,0.1981,0.198,0.198,0.1976,0.1976,0.1976,0.1976,0,0,0,0,0,0,0,0.1858,0.1866,0.1955,0.195,0.1953,0.1942,0.1948,0.1948,0.197,0.1972,0.1973,0.1985,0.1978,0.1981,0.1981,0.198,0.1976,0.1976,0.1976,0.1976,0.2031,0.2033,0,0,0,0,0,0,0.1864,0.1863,0.1953,0.1956,0.191,0.1945,0.1952,0.1972,0.1972,0.1973,0.1985,0.1985,0.1982,0.1981,0.1981,0.2019,0.1976,0.1976,0.1976,0.203,0.2032,0.2033,0,0,0,0,0,0,0.1861,0.1872,0.1951,0.1913,0.1923,0.1948,0.197,0.1973,0.1982,0.1984,0.1983,0.1993,0.1982,0.1981,0.1999,0.2017,0.1976,0.1976,0.2028,0.203,0.2033,0.2075,0,0,0,0,0,0,0.1857,0.187,0.1879,0.1914,0.1926,0.1971,0.1971,0.1974,0.1991,0.1991,0.1989,0.1988,0.1981,0.1999,0.1998,0.2016,0.1976,0.2026,0.2029,0.2032,0.2071,0.2078,0.2084,0,0,0,0,0,0.1853,0.1872,0.188,0.189,0.194,0.1972,0.1976,0.1989,0.1992,0.1995,0.2008,0.1988,0.2017,0.2,0.1999,0.2017,0.2025,0.2028,0.2032,0.2069,0.2077,0.2084,0,0,0,0,0,0,0.1832,0.1875,0.1884,0.1918,0.1942,0.1974,0.1979,0.1994,0.2006,0.2001,0.2005,0.2005,0.2026,0.2021,0.2003,0.2045,0.2019,0.2022,0.2048,0.2055,0.2062,0.2003,0.1975,0,0,0,0,0,0.1831,0.1844,0.1891,0.1912,0.1926,0.1953,0.1966,0.1976,0.1997,0.2002,0.2007,0.2018,0.204,0.2047,0.2052,0.2074,0.2074,0.2088,0.2094,0.21,0.2054,0.2109,0.2115,0.2045,0.2045,0.2045,0,0,0.1826,0.1852,0.1859,0.1905,0.1921,0.1933,0.1958,0.1977,0.1986,0.1998,0.2006,0.2033,0.2051,0.2078,0.2087,0.2076,0.2128,0.2104,0.2109,0.2058,0.2113,0.212,0.2126,0.2047,0.2047,0.2047,0,0,0.1809,0.1849,0.1845,0.1866,0.1895,0.1918,0.1927,0.1961,0.1977,0.1999,0.2021,0.206,0.2076,0.2104,0.212,0.2164,0.2158,0.2177,0.2161,0.2218,0.2223,0.2228,0.2266,0.2273,0.2183,0.2183,0.2184,0,0.1791,0.1812,0.1849,0.185,0.1869,0.1911,0.1916,0.1938,0.1973,0.1998,0.1999,0.2066,0.2084,0.2138,0.2151,0.2175,0.2196,0.2133,0.2224,0.2229,0.2233,0.227,0.2278,0.2186,0.2186,0.2185,0.2185,0,0.1773,0.1786,0.1789,0.1804,0.1828,0.1843,0.1887,0.1912,0.1943,0.1973,0.2031,0.2071,0.2115,0.2144,0.215,0.2202,0.2207,0.2226,0.22,0.2242,0.228,0.2287,0.2189,0.2189,0.2188,0.2187,0,0,0.1733,0.1768,0.1764,0.177,0.181,0.1829,0.1857,0.1909,0.1938,0.1978,0.2025,0.2076,0.2111,0.2129,0.2174,0.2206,0.2272,0.2215,0.2217,0.224,0.2385,0.2424,0.2436,0.2316,0.2316,0.2317,0.241,0,0.1702,0.1703,0.173,0.1731,0.1746,0.1798,0.1824,0.1874,0.1927,0.1981,0.2048,0.2098,0.2109,0.2146,0.2184,0.2251,0.2287,0.2243,0.2346,0.2348,0.2369,0.2444,0.2483,0.2571,0.2417,0.2418,0.2419,0,0.1674,0.1682,0.1685,0.1721,0.1731,0.1736,0.1808,0.1835,0.1925,0.197,0.2037,0.2091,0.2161,0.2161,0.2271,0.2246,0.2295,0.2335,0.2341,0.235,0.24,0.25,0.259,0.2584,0.243,0.2429,0.2428,0,0.1646,0.1653,0.1661,0.167,0.1712,0.1727,0.1756,0.1833,0.1871,0.1966,0.2008,0.2103,0.2158,0.2231,0.2317,0.2303,0.2426,0.244,0.2517,0.252,0.2552,0.2557,0.2629,0.2495,0.2495,0.2494,0.2494,0,0.1623,0.1618,0.1645,0.1647,0.1655,0.1698,0.1728,0.1776,0.1853,0.1904,0.1997,0.2057,0.2171,0.2265,0.233,0.2454,0.2458,0.2504,0.255,0.2573,0.2578,0.257,0.2515,0.2498,0.2497,0.2497,0.2496,0,0.1583,0.1607,0.1604,0.1633,0.1642,0.1644,0.1692,0.1722,0.1799,0.187,0.19,0.2033,0.2172,0.2289,0.2424,0.2483,0.258,0.2625,0.2633,0.2677,0.2738,0.2683,0.2663,0.2646,0.2732,0.2734,0.2735,0,0.1559,0.1557,0.1575,0.1573,0.1577,0.1593,0.1615,0.1688,0.1725,0.1857,0.1892,0.2042,0.2168,0.2393,0.2551,0.2713,0.264,0.2796,0.2769,0.2741,0.2714,0.2608,0.2586,0.2844,0.2846,0.2847,0.2849,0,0.1493,0.1502,0.15,0.1506,0.1515,0.1531,0.1565,0.159,0.169,0.1763,0.1879,0.199,0.2261,0.2469,0.2686,0.2786,0.275,0.2835,0.282,0.2803,0.2676,0.2685,0.2762,0.2864,0.2863,0.2862,0.2861,0.286,0.1425,0.1406,0.1414,0.1413,0.1432,0.1454,0.1457,0.1526,0.1586,0.1697,0.1827,0.1997,0.2317,0.266,0.2803,0.3015,0.2872,0.2991,0.2927,0.2824,0.279,0.2883,0.3027,0.3026,0.3026,0.3026,0.3025,0,0.1315,0.1316,0.1321,0.1318,0.1317,0.1364,0.1411,0.1429,0.1488,0.1641,0.1761,0.2084,0.2396,0.2703,0.3032,0.3087,0.3061,0.3048,0.2913,0.2891,0.3023,0.3013,0.3145,0.3145,0.3145,0.3145,0.3145,0.3145,0.1252,0.1217,0.1231,0.1198,0.121,0.1204,0.1224,0.129,0.1389,0.1563,0.174,0.1907,0.2275,0.2749,0.3038,0.3072,0.2979,0.293,0.2863,0.2973,0.2963,0.2953,0.2935,0.3048,0.3048,0.2745,0.2743,0.2741]},{"header":{"parameterUnit":"m.s-1","parameterCategory":2,"la1":30.2991,"la2":30.254,"lo1":-89.0895,"lo2":-89.0444,"dy":0.0017,"dx":0.0017,"nx":28,"ny":28,"refTime":"2024-07-12T21:00:00:Z","depth":"0","parameterNumber":3,"parameterNumberName":"V-component_of_CURRENTS"},"data":[0,0,0,0,0,0,0,0,0,0,0,0,0,0,0,0,0,0,0,0,0,0,0,0,0,0,0,0,0,0,0,0,0,0,0,0,0,0,0,0,0,0,0,0,0,0,0,0,0,0,0,0,0,0,0,0,0,0,-0.0865,-0.0866,0,-0.095,-0.0951,-0.0951,-0.1009,-0.1009,-0.101,-0.101,-0.1038,-0.1039,-0.1039,0,0,0,0,0,0,0,0,0,0,0,0,0,-0.0803,-0.0803,-0.0865,-0.0866,-0.0867,-0.095,-0.0951,-0.0952,-0.1009,-0.1009,-0.101,-0.1011,-0.1038,-0.1039,-0.1039,0,0,0,0,0,0,0,0,0,0,0,0,0,-0.0852,-0.0804,-0.0865,-0.0907,-0.0911,-0.0949,-0.0951,-0.0952,-0.1009,-0.1009,-0.101,-0.1011,-0.1038,-0.1039,-0.1039,-0.1026,0,0,-0.104,-0.104,0,0,0,0,0,0,0,0,-0.0849,-0.0854,-0.0899,-0.0904,-0.0909,-0.0971,-0.0939,-0.0974,-0.1008,-0.097,-0.101,-0.1011,-0.1011,-0.1013,-0.1027,-0.1027,-0.1028,-0.104,-0.104,-0.104,-0.1041,0,0,0,0,0,0,0,-0.0845,-0.0851,-0.0897,-0.0901,-0.0907,-0.0939,-0.0946,-0.0946,-0.0983,-0.0974,-0.0979,-0.099,-0.1013,-0.1026,-0.1027,-0.1028,-0.104,-0.104,-0.1041,-0.1041,-0.1025,-0.1025,0,0,0,0,0,0,-0.0834,-0.0847,-0.0895,-0.09,-0.0882,-0.0939,-0.0947,-0.0949,-0.0984,-0.0992,-0.0989,-0.0992,-0.1025,-0.1027,-0.1029,-0.101,-0.104,-0.1041,-0.1041,-0.1026,-0.1025,-0.1024,0,0,0,0,0,0,-0.0832,-0.0837,-0.0891,-0.0877,-0.0887,-0.0939,-0.0941,-0.095,-0.0965,-0.0997,-0.1003,-0.0995,-0.1026,-0.1028,-0.1023,-0.1011,-0.1041,-0.1041,-0.1027,-0.1026,-0.1025,-0.0974,0,0,0,0,0,0,-0.083,-0.0835,-0.0827,-0.0876,-0.0887,-0.0901,-0.0941,-0.0952,-0.0972,-0.0976,-0.1003,-0.1007,-0.1027,-0.1022,-0.1024,-0.1012,-0.1042,-0.1028,-0.1026,-0.1025,-0.0977,-0.0972,-0.0967,0,0,0,0,0,-0.0827,-0.0814,-0.0825,-0.0831,-0.0875,-0.0901,-0.0908,-0.0949,-0.0971,-0.0967,-0.0987,-0.1006,-0.1016,-0.1022,-0.1023,-0.1012,-0.1028,-0.1027,-0.1025,-0.0979,-0.0973,-0.0968,0,0,0,0,0,0,-0.0789,-0.082,-0.0834,-0.0832,-0.0858,-0.0911,-0.0914,-0.0942,-0.0958,-0.0961,-0.0993,-0.0997,-0.0991,-0.1005,-0.101,-0.1005,-0.1027,-0.1025,-0.0991,-0.0985,-0.0981,-0.0943,-0.1042,0,0,0,0,0,-0.0773,-0.0767,-0.0808,-0.0805,-0.0816,-0.0862,-0.0877,-0.0903,-0.093,-0.0939,-0.0957,-0.0975,-0.0986,-0.0988,-0.0997,-0.0986,-0.099,-0.0982,-0.0977,-0.0973,-0.0943,-0.0951,-0.0944,-0.102,-0.102,-0.102,0,0,-0.0761,-0.0775,-0.0774,-0.0795,-0.0821,-0.0819,-0.0873,-0.089,-0.0885,-0.0936,-0.0927,-0.0955,-0.0979,-0.0974,-0.0972,-0.0983,-0.0955,-0.0971,-0.0968,-0.0939,-0.0949,-0.0941,-0.0935,-0.1019,-0.1019,-0.1019,0,0,-0.0728,-0.0742,-0.0725,-0.0735,-0.0762,-0.0788,-0.0788,-0.083,-0.0845,-0.0842,-0.0883,-0.0897,-0.0909,-0.0926,-0.0937,-0.0907,-0.093,-0.092,-0.0863,-0.0872,-0.0865,-0.086,-0.0857,-0.0852,-0.0917,-0.0917,-0.0917,0,-0.0707,-0.0691,-0.0725,-0.0708,-0.0708,-0.0766,-0.0746,-0.0767,-0.08,-0.0803,-0.0827,-0.0854,-0.0881,-0.0878,-0.0874,-0.0895,-0.09,-0.0885,-0.0865,-0.0859,-0.0854,-0.0853,-0.0847,-0.0915,-0.0915,-0.0915,-0.0915,0,-0.0668,-0.0645,-0.0637,-0.0627,-0.0631,-0.0626,-0.0657,-0.0663,-0.069,-0.0715,-0.072,-0.0761,-0.0778,-0.0798,-0.0825,-0.0808,-0.0824,-0.086,-0.0877,-0.0843,-0.0845,-0.084,-0.0911,-0.0912,-0.0913,-0.0913,0,0,-0.0631,-0.0611,-0.0601,-0.0578,-0.0586,-0.0586,-0.0573,-0.058,-0.0571,-0.0607,-0.0592,-0.063,-0.0667,-0.068,-0.0728,-0.0734,-0.0717,-0.0774,-0.0775,-0.0765,-0.0724,-0.0737,-0.0733,-0.0755,-0.0753,-0.0752,-0.074,0,-0.0583,-0.0529,-0.0532,-0.0475,-0.0452,-0.048,-0.046,-0.0474,-0.0497,-0.0497,-0.0551,-0.0556,-0.062,-0.0631,-0.0648,-0.0702,-0.0701,-0.0716,-0.0761,-0.0761,-0.0773,-0.0726,-0.0692,-0.0678,-0.0735,-0.0734,-0.0734,0,-0.0533,-0.0501,-0.0441,-0.0392,-0.0385,-0.0363,-0.0345,-0.0332,-0.0354,-0.0371,-0.0397,-0.0445,-0.0466,-0.0525,-0.0578,-0.0587,-0.0635,-0.0676,-0.0677,-0.0695,-0.0764,-0.0721,-0.0667,-0.0699,-0.0727,-0.0727,-0.0728,0,-0.0491,-0.0428,-0.0377,-0.0362,-0.0328,-0.0306,-0.029,-0.0297,-0.0279,-0.0291,-0.0284,-0.0334,-0.035,-0.0416,-0.0515,-0.0542,-0.0566,-0.0624,-0.0673,-0.0676,-0.0654,-0.0656,-0.0627,-0.0634,-0.0635,-0.0635,-0.0635,0,-0.0433,-0.0383,-0.0353,-0.0325,-0.0262,-0.0253,-0.0198,-0.0198,-0.0183,-0.0149,-0.0216,-0.0201,-0.0321,-0.0368,-0.0463,-0.0545,-0.0531,-0.0633,-0.0664,-0.0637,-0.0638,-0.0673,-0.0706,-0.0634,-0.0634,-0.0634,-0.0634,0,-0.0383,-0.0366,-0.0303,-0.0259,-0.0242,-0.0196,-0.014,-0.0102,-0.0096,-0.005,-0.0047,-0.0092,-0.0149,-0.0268,-0.0368,-0.047,-0.0605,-0.0587,-0.0541,-0.0566,-0.0656,-0.0688,-0.0814,-0.0882,-0.0632,-0.0632,-0.0632,0,-0.0347,-0.0315,-0.0261,-0.0224,-0.0199,-0.0137,-0.0094,-0.0067,-0.0024,0.0017,0.0047,0.0013,-0.0003,-0.0155,-0.0328,-0.0474,-0.0587,-0.0549,-0.0596,-0.0623,-0.0683,-0.0825,-0.0883,-0.055,-0.0549,-0.0549,-0.0548,0,-0.0275,-0.0269,-0.0223,-0.016,-0.0109,-0.0042,0.0023,0.0068,0.0111,0.0154,0.021,0.0211,0.0069,-0.0043,-0.025,-0.0386,-0.0614,-0.0545,-0.058,-0.0603,-0.0747,-0.0839,-0.0595,-0.0544,-0.0544,-0.0545,-0.0545,-0.0545,-0.0223,-0.0183,-0.0138,-0.0073,-0.0017,0.0061,0.013,0.0194,0.028,0.0379,0.0357,0.0414,0.0248,-0.0028,-0.0228,-0.0506,-0.0598,-0.0574,-0.0606,-0.0746,-0.0821,-0.0561,-0.055,-0.0551,-0.0551,-0.0551,-0.0552,0,-0.0147,-0.0109,-0.0047,0.0033,0.0108,0.0118,0.022,0.0297,0.0409,0.0501,0.057,0.0587,0.038,0.0108,-0.0244,-0.0474,-0.0691,-0.0607,-0.0758,-0.0813,-0.0553,-0.0554,-0.0534,-0.0534,-0.0534,-0.0534,-0.0534,-0.0534,-0.01,-0.0026,0.0001,0.0138,0.0193,0.0308,0.0373,0.0469,0.0558,0.0715,0.0807,0.0852,0.0747,0.0154,-0.0289,-0.0462,-0.072,-0.0818,-0.093,-0.0667,-0.0666,-0.0665,-0.0671,-0.0677,-0.0677,-0.1217,-0.1221,-0.1223]}],[{"header":{"parameterUnit":"m.s-1","parameterCategory":2,"la1":30.2991,"la2":30.254,"lo1":-89.0895,"lo2":-89.0444,"dy":0.0017,"dx":0.0017,"nx":28,"ny":28,"refTime":"2024-07-12T21:00:00:Z","depth":"2","parameterNumber":2,"parameterNumberName":"U-component_of_CURRENTS"},"data":[0,0,0,0,0,0,0,0,0,0,0,0,0,0,0,0,0,0,0,0,0,0,0,0,0,0,0,0,0,0,0,0,0,0,0,0,0,0,0,0,0,0,0,0,0,0,0,0,0,0,0,0,0,0,0,0,0,0,0.0082,0.0081,0,0.0075,0.0076,0.0076,0.0093,0.0093,0.0093,0.0093,0.0053,0.0052,0.0051,0,0,0,0,0,0,0,0,0,0,0,0,0,0.0131,0.013,0.0082,0.0081,0.0081,0.0075,0.0076,0.0076,0.0093,0.0093,0.0093,0.0093,0.0054,0.0052,0.0051,0,0,0,0,0,0,0,0,0,0,0,0,0,0.0119,0.013,0.0082,0.0086,0.0086,0.0075,0.0076,0.0076,0.0093,0.0093,0.0093,0.0094,0.0054,0.0052,0.005,0.0032,0,0,0.0045,0.0044,0,0,0,0,0,0,0,0,0.012,0.0117,0.0086,0.0086,0.0086,0.0082,0.0078,0.0058,0.0093,0.0094,0.0093,0.0094,0.0057,0.0055,0.0059,0.0031,0.0029,0.0044,0.0043,0.0042,0.0042,0,0,0,0,0,0,0,0.012,0.0118,0.0083,0.0085,0.0085,0.0096,0.0095,0.0075,0.0076,0.0094,0.0094,0.0088,0.0058,0.0061,0.0058,0.0028,0.0045,0.0043,0.0042,0.0041,0.0094,0.0096,0,0,0,0,0,0,0.0112,0.0118,0.0083,0.0082,0.01,0.0094,0.0093,0.0086,0.0077,0.0075,0.0087,0.0088,0.0064,0.006,0.0056,0.0118,0.0043,0.0041,0.004,0.0091,0.0094,0.0097,0,0,0,0,0,0,0.0114,0.0109,0.0083,0.0098,0.0095,0.0093,0.0085,0.0085,0.0122,0.0072,0.007,0.0127,0.0064,0.0059,0.0091,0.0113,0.004,0.0038,0.0088,0.0092,0.0096,0.0186,0,0,0,0,0,0,0.0115,0.011,0.0128,0.0097,0.0093,0.0109,0.0084,0.0085,0.0114,0.0117,0.0104,0.0099,0.0064,0.0095,0.0089,0.0109,0.0037,0.0085,0.009,0.0094,0.018,0.0193,0.0203,0,0,0,0,0,0.0117,0.0124,0.0129,0.0126,0.0109,0.011,0.0111,0.0112,0.0116,0.0146,0.0149,0.0101,0.012,0.0096,0.0089,0.0108,0.0083,0.0089,0.0094,0.0175,0.019,0.0203,0,0,0,0,0,0,0.0153,0.0125,0.013,0.013,0.0139,0.0112,0.0133,0.0137,0.0164,0.0172,0.0135,0.0131,0.0166,0.0136,0.011,0.0142,0.0093,0.0097,0.0156,0.017,0.0182,0.0209,0.0035,0,0,0,0,0,0.0169,0.0171,0.0154,0.0162,0.0167,0.0163,0.0171,0.0174,0.0177,0.019,0.0197,0.0192,0.0178,0.0177,0.0172,0.0188,0.019,0.0199,0.021,0.022,0.0242,0.0273,0.029,0.0116,0.0116,0.0116,0,0,0.0178,0.017,0.0169,0.0172,0.0175,0.0208,0.0171,0.0192,0.0222,0.0178,0.025,0.024,0.0197,0.0221,0.0232,0.02,0.0276,0.0227,0.0236,0.0252,0.0281,0.0298,0.0313,0.012,0.0119,0.0118,0,0,0.0208,0.02,0.0224,0.0245,0.0262,0.0256,0.0275,0.029,0.03,0.0359,0.0326,0.034,0.0356,0.0316,0.0293,0.0367,0.0343,0.0372,0.0442,0.0472,0.0486,0.0499,0.054,0.0555,0.037,0.037,0.037,0,0.025,0.0261,0.0236,0.0283,0.03,0.0289,0.0333,0.0341,0.0378,0.0379,0.0404,0.0431,0.0393,0.0375,0.041,0.0388,0.0423,0.0383,0.0487,0.0499,0.051,0.0549,0.0564,0.0375,0.0374,0.0374,0.0373,0,0.0282,0.0334,0.035,0.0402,0.0416,0.0453,0.0448,0.0482,0.0504,0.0512,0.0549,0.0534,0.0544,0.0529,0.0495,0.0539,0.0547,0.0501,0.0447,0.0533,0.0568,0.0583,0.0382,0.038,0.0379,0.0378,0,0,0.0315,0.0367,0.039,0.043,0.0483,0.0486,0.0529,0.0541,0.0564,0.0623,0.0665,0.0655,0.0667,0.0644,0.0602,0.0629,0.0729,0.0623,0.0622,0.0658,0.0839,0.085,0.0867,0.0722,0.0724,0.0727,0.0837,0,0.038,0.0465,0.0469,0.0564,0.061,0.0604,0.064,0.0647,0.0665,0.0715,0.0686,0.0729,0.0697,0.0722,0.0745,0.0734,0.0774,0.0706,0.0756,0.0757,0.0751,0.0885,0.0694,0.0778,0.0851,0.0853,0.0855,0,0.0448,0.0485,0.0582,0.0634,0.0648,0.0704,0.0721,0.0753,0.0778,0.0798,0.0837,0.084,0.0876,0.0852,0.0908,0.0884,0.089,0.0883,0.0885,0.0877,0.0797,0.0701,0.0801,0.0879,0.0877,0.0875,0.0874,0,0.0487,0.0576,0.0642,0.0673,0.073,0.0755,0.0775,0.0796,0.0815,0.0875,0.0928,0.0958,0.101,0.1032,0.1033,0.0998,0.111,0.1032,0.1044,0.1044,0.0879,0.0861,0.1093,0.1092,0.1092,0.1092,0.1092,0,0.0563,0.063,0.0672,0.0724,0.0774,0.0799,0.0861,0.0874,0.0929,0.0977,0.0998,0.1057,0.1073,0.112,0.1102,0.115,0.1166,0.1107,0.1091,0.0909,0.0892,0.0963,0.0946,0.1096,0.1095,0.1094,0.1094,0,0.0624,0.067,0.0757,0.0808,0.0821,0.0864,0.0915,0.0949,0.1011,0.1086,0.1124,0.1177,0.1261,0.1259,0.1295,0.1249,0.1265,0.1262,0.1065,0.1026,0.1161,0.1148,0.1308,0.131,0.1311,0.1312,0.1313,0,0.0659,0.0721,0.0807,0.0836,0.0873,0.0925,0.0958,0.1002,0.1039,0.1149,0.1188,0.1299,0.1353,0.1427,0.1378,0.1381,0.1355,0.1184,0.1068,0.1224,0.1192,0.1176,0.1162,0.0881,0.0879,0.0877,0.0875,0,0.0716,0.0776,0.0816,0.0876,0.0928,0.0966,0.1017,0.105,0.1115,0.1185,0.1278,0.134,0.1422,0.1336,0.1345,0.1301,0.1171,0.1145,0.1365,0.0868,0.0834,0.0798,0.0795,0.0856,0.0858,0.0859,0.086,0.0861,0.075,0.078,0.0845,0.0882,0.0939,0.0988,0.101,0.1061,0.1126,0.1185,0.1269,0.1277,0.1173,0.1125,0.1113,0.1108,0.1176,0.101,0.1011,0.1015,0.0958,0.093,0.096,0.0962,0.0964,0.0966,0.0968,0,0.0734,0.0767,0.0824,0.088,0.0921,0.0965,0.1021,0.1017,0.1071,0.1114,0.1175,0.0937,0.0879,0.0861,0.0825,0.083,0.0784,0.0778,0.064,0.0657,0.0673,0.0594,0.0502,0.0501,0.0501,0.0501,0,0,0.0724,0.0746,0.0768,0.083,0.0879,0.0919,0.0945,0.0951,0.0952,0.0902,0.0851,0.0831,0.0778,0.0579,0.0552,0.0547,0.0619,0.0538,0.0891,0.0743,0.076,0.0767,0.0661,0,0,0,0,0]},{"header":{"parameterUnit":"m.s-1","parameterCategory":2,"la1":30.2991,"la2":30.254,"lo1":-89.0895,"lo2":-89.0444,"dy":0.0017,"dx":0.0017,"nx":28,"ny":28,"refTime":"2024-07-12T21:00:00:Z","depth":"2","parameterNumber":3,"parameterNumberName":"V-component_of_CURRENTS"},"data":[0,0,0,0,0,0,0,0,0,0,0,0,0,0,0,0,0,0,0,0,0,0,0,0,0,0,0,0,0,0,0,0,0,0,0,0,0,0,0,0,0,0,0,0,0,0,0,0,0,0,0,0,0,0,0,0,0,0,0.0123,0.0123,0,0.0052,0.0051,0.005,-0.0031,-0.0032,-0.0033,-0.0034,-0.0045,-0.0045,-0.0044,0,0,0,0,0,0,0,0,0,0,0,0,0,0.0121,0.0122,0.0123,0.0123,0.0122,0.0052,0.0051,0.0049,-0.0031,-0.0032,-0.0033,-0.0034,-0.0045,-0.0045,-0.0044,0,0,0,0,0,0,0,0,0,0,0,0,0,0.009,0.0122,0.0123,0.0076,0.0072,0.0052,0.0051,0.0049,-0.0031,-0.0032,-0.0033,-0.0035,-0.0045,-0.0045,-0.0044,-0.0014,0,0,-0.0042,-0.0041,0,0,0,0,0,0,0,0,0.0092,0.009,0.0084,0.008,0.0074,0.0021,0.0046,0.0032,-0.003,0.0004,-0.0034,-0.0035,-0.0014,-0.0016,-0.0033,-0.0014,-0.0015,-0.0042,-0.0041,-0.0041,-0.0041,0,0,0,0,0,0,0,0.0094,0.0092,0.0091,0.0083,0.0078,0.0036,0.003,0.0042,0.0001,0.0001,-0.0004,-0.0006,-0.0017,-0.0033,-0.0033,-0.0015,-0.0042,-0.0041,-0.004,-0.004,-0.0054,-0.0055,0,0,0,0,0,0,0.0116,0.0095,0.0093,0.0089,0.0084,0.0037,0.0031,0.0037,-0.0,-0.0006,-0.0004,-0.0009,-0.0034,-0.0034,-0.0034,-0.0065,-0.0041,-0.004,-0.004,-0.0053,-0.0054,-0.0055,0,0,0,0,0,0,0.0116,0.0117,0.0096,0.0092,0.0087,0.004,0.0046,0.0036,-0.0013,-0.0004,-0.0011,-0.0046,-0.0035,-0.0035,-0.0067,-0.0063,-0.004,-0.0039,-0.0052,-0.0053,-0.0054,-0.0084,0,0,0,0,0,0,0.0117,0.0117,0.011,0.0095,0.0089,0.0075,0.0047,0.0036,-0.0008,-0.0016,-0.0041,-0.0042,-0.0036,-0.0069,-0.0067,-0.0061,-0.0039,-0.0051,-0.0053,-0.0054,-0.0082,-0.0086,-0.0089,0,0,0,0,0,0.0117,0.0123,0.011,0.0109,0.0087,0.0075,0.0067,0.0026,-0.0009,-0.0026,-0.0064,-0.0043,-0.0076,-0.007,-0.0067,-0.0061,-0.005,-0.0052,-0.0054,-0.008,-0.0085,-0.0089,0,0,0,0,0,0,0.0105,0.0116,0.0101,0.0105,0.0086,0.0063,0.0039,0.0011,-0.0035,-0.0056,-0.0061,-0.0065,-0.0087,-0.0076,-0.0069,-0.0071,-0.0055,-0.0056,-0.0076,-0.008,-0.0084,-0.0088,-0.0038,0,0,0,0,0,0.0105,0.0119,0.0109,0.0108,0.0096,0.0058,0.0039,0.0013,-0.0018,-0.0043,-0.007,-0.0087,-0.0085,-0.009,-0.0092,-0.0095,-0.0101,-0.0087,-0.0091,-0.0094,-0.0097,-0.0119,-0.0125,-0.0061,-0.0061,-0.0061,0,0,0.01,0.0108,0.0111,0.0107,0.0081,0.0059,0.0041,0.001,-0.0012,-0.003,-0.0093,-0.0106,-0.0093,-0.0104,-0.011,-0.0098,-0.0119,-0.0097,-0.0099,-0.01,-0.0121,-0.0128,-0.0133,-0.0062,-0.0062,-0.0062,0,0,0.0097,0.0098,0.0099,0.0086,0.0059,0.0043,0.0029,-0.0017,-0.0043,-0.0088,-0.0106,-0.0132,-0.0145,-0.0138,-0.0128,-0.0152,-0.0142,-0.0146,-0.0161,-0.0182,-0.0188,-0.0192,-0.0219,-0.0226,-0.0142,-0.0142,-0.0142,0,0.0067,0.0087,0.0092,0.0079,0.0068,0.0032,0.0013,-0.0011,-0.0069,-0.0075,-0.0112,-0.015,-0.0154,-0.0139,-0.0162,-0.0158,-0.0177,-0.0143,-0.0187,-0.0192,-0.0196,-0.0222,-0.0229,-0.0144,-0.0144,-0.0144,-0.0144,0,0.0082,0.0067,0.0062,0.0044,0.0033,0.0013,-0.0007,-0.0041,-0.0084,-0.0101,-0.0128,-0.0159,-0.0174,-0.0176,-0.0182,-0.0199,-0.0207,-0.0194,-0.0175,-0.0205,-0.023,-0.0237,-0.0146,-0.0146,-0.0145,-0.0145,0,0,0.0051,0.0068,0.005,0.0051,0.0015,0.0016,-0.0016,-0.0029,-0.0038,-0.0103,-0.0113,-0.0147,-0.0175,-0.0169,-0.0178,-0.0208,-0.0271,-0.0227,-0.0227,-0.0252,-0.0334,-0.0299,-0.0303,-0.0274,-0.0275,-0.0276,-0.0343,0,0.0032,0.0034,0.0042,0.0018,0.0014,-0.0005,-0.0018,-0.003,-0.0055,-0.0078,-0.0098,-0.0118,-0.0161,-0.0177,-0.0218,-0.025,-0.029,-0.0255,-0.0302,-0.0304,-0.0268,-0.0309,-0.0241,-0.0292,-0.035,-0.0351,-0.0351,0,0.002,0.0033,0.0022,0.0039,0.0033,0.0015,0.0013,-0.0001,-0.0018,-0.0038,-0.0071,-0.0091,-0.0139,-0.0177,-0.0267,-0.0249,-0.0305,-0.0339,-0.0342,-0.0302,-0.0281,-0.027,-0.0302,-0.0363,-0.0362,-0.0361,-0.036,0,0.0014,0.0012,0.0019,0.0016,0.0022,0.0019,0.0015,0.0004,0.0013,-0.0018,-0.0025,-0.0079,-0.0109,-0.0193,-0.028,-0.0284,-0.0379,-0.0377,-0.0397,-0.0395,-0.034,-0.0331,-0.045,-0.045,-0.0449,-0.0449,-0.0449,0,0.0004,-0.0004,0.0021,0.0015,0.0036,0.0035,0.0042,0.003,0.0026,0.0045,-0.001,-0.0012,-0.0121,-0.0178,-0.0272,-0.0356,-0.0373,-0.0412,-0.0412,-0.0349,-0.0341,-0.0398,-0.0391,-0.0452,-0.0451,-0.0451,-0.045,0,-0.0012,-0.0007,-0.0002,0.0014,0.0025,0.0035,0.0061,0.0078,0.006,0.0075,0.0066,0.0028,-0.0052,-0.0149,-0.0269,-0.0326,-0.0414,-0.0438,-0.036,-0.035,-0.0424,-0.0418,-0.0474,-0.0473,-0.0473,-0.0472,-0.0472,0,-0.0011,-0.0015,-0.0004,0.0013,0.0015,0.0043,0.0065,0.0074,0.0101,0.0107,0.0124,0.0068,0.0054,-0.0099,-0.0197,-0.0326,-0.0401,-0.0374,-0.0363,-0.0433,-0.0428,-0.0422,-0.0417,-0.0314,-0.0313,-0.0311,-0.031,0,-0.0016,-0.0034,-0.0013,0.0017,0.0039,0.009,0.0126,0.0157,0.0176,0.02,0.0228,0.0226,0.0123,0.0031,-0.0131,-0.0205,-0.0346,-0.0349,-0.0446,-0.0307,-0.0285,-0.0278,-0.0278,-0.0298,-0.03,-0.03,-0.0301,-0.0302,-0.0025,-0.001,0.0004,0.0044,0.0079,0.0139,0.0187,0.0241,0.0298,0.037,0.0352,0.0342,0.0205,0.0038,-0.0081,-0.0209,-0.0224,-0.0303,-0.0307,-0.0312,-0.027,-0.0246,-0.0246,-0.0247,-0.0248,-0.0248,-0.0249,0,-0.0002,0.0018,0.0043,0.0092,0.0145,0.0159,0.0242,0.0308,0.0394,0.0438,0.0497,0.0357,0.028,0.0085,-0.0056,-0.0146,-0.0137,-0.0215,-0.0205,-0.0214,-0.0223,-0.0177,-0.0129,-0.0129,-0.0129,-0.013,0,0,0.0013,0.0053,0.007,0.015,0.0191,0.0281,0.0338,0.0427,0.047,0.051,0.0487,0.0538,0.0279,0.0165,0.0046,-0.0053,-0.0105,-0.0051,-0.0127,-0.0103,-0.0111,-0.0242,-0.0177,0,0,0,0,0]}],[{"header":{"parameterUnit":"m.s-1","parameterCategory":2,"la1":30.2991,"la2":30.254,"lo1":-89.0895,"lo2":-89.0444,"dy":0.0017,"dx":0.0017,"nx":28,"ny":28,"refTime":"2024-07-12T21:00:00:Z","depth":"4","parameterNumber":2,"parameterNumberName":"U-component_of_CURRENTS"},"data":[0,0,0,0,0,0,0,0,0,0,0,0,0,0,0,0,0,0,0,0,0,0,0,0,0,0,0,0,0,0,0,0,0,0,0,0,0,0,0,0,0,0,0,0,0,0,0,0,0,0,0,0,0,0,0,0,0,0,-0.0269,-0.027,0,-0.0318,-0.0318,-0.0319,-0.0394,-0.0395,-0.0397,-0.0398,-0.0523,-0.0525,-0.0527,0,0,0,0,0,0,0,0,0,0,0,0,0,-0.0237,-0.0237,-0.0269,-0.027,-0.0271,-0.0318,-0.0318,-0.0319,-0.0393,-0.0395,-0.0397,-0.0399,-0.0522,-0.0525,-0.0527,0,0,0,0,0,0,0,0,0,0,0,0,0,-0.0263,-0.0237,-0.0269,-0.0315,-0.032,-0.0318,-0.0318,-0.0319,-0.0393,-0.0395,-0.0397,-0.04,-0.0522,-0.0525,-0.0527,-0.0499,0,0,-0.0536,-0.0537,0,0,0,0,0,0,0,0,-0.0261,-0.0264,-0.0308,-0.0312,-0.0317,-0.0354,-0.0353,-0.0384,-0.0392,-0.0363,-0.0398,-0.0401,-0.0473,-0.048,-0.048,-0.0505,-0.0511,-0.0536,-0.0538,-0.0539,-0.054,0,0,0,0,0,0,0,-0.026,-0.0262,-0.0287,-0.0308,-0.0314,-0.0332,-0.0338,-0.0359,-0.0405,-0.0366,-0.0372,-0.038,-0.0477,-0.0477,-0.0484,-0.0513,-0.0536,-0.0539,-0.0541,-0.0542,-0.0659,-0.0661,0,0,0,0,0,0,-0.0255,-0.026,-0.0285,-0.0288,-0.0297,-0.0331,-0.0338,-0.0338,-0.0403,-0.0415,-0.0378,-0.0383,-0.0471,-0.0481,-0.0489,-0.0596,-0.0539,-0.0542,-0.0544,-0.0658,-0.066,-0.0661,0,0,0,0,0,0,-0.0254,-0.0256,-0.0283,-0.0278,-0.0283,-0.033,-0.0329,-0.0338,-0.0388,-0.0412,-0.0425,-0.0425,-0.0473,-0.0485,-0.0542,-0.0597,-0.0543,-0.0546,-0.0656,-0.0659,-0.066,-0.0723,0,0,0,0,0,0,-0.0253,-0.0255,-0.0261,-0.0277,-0.0283,-0.0313,-0.0328,-0.0337,-0.0387,-0.0396,-0.0455,-0.0466,-0.0476,-0.0537,-0.0545,-0.06,-0.0548,-0.0655,-0.0657,-0.066,-0.0719,-0.0727,-0.0734,0,0,0,0,0,-0.0251,-0.0259,-0.0261,-0.0265,-0.0287,-0.0314,-0.032,-0.0359,-0.0388,-0.0412,-0.0451,-0.0467,-0.056,-0.054,-0.0549,-0.0606,-0.0653,-0.0657,-0.066,-0.0716,-0.0726,-0.0734,0,0,0,0,0,0,-0.0252,-0.0267,-0.0271,-0.0283,-0.0308,-0.0329,-0.036,-0.0381,-0.0427,-0.0461,-0.0476,-0.0489,-0.0564,-0.0566,-0.0544,-0.0646,-0.0613,-0.0618,-0.0653,-0.0662,-0.067,-0.0664,-0.0551,0,0,0,0,0,-0.0248,-0.0264,-0.0277,-0.0294,-0.0311,-0.034,-0.0361,-0.0396,-0.0433,-0.0459,-0.0501,-0.0544,-0.0572,-0.0604,-0.0634,-0.0681,-0.0652,-0.0725,-0.0732,-0.0739,-0.0739,-0.075,-0.0758,-0.0672,-0.0672,-0.0671,0,0,-0.0251,-0.0266,-0.0273,-0.0296,-0.0324,-0.0341,-0.0361,-0.0422,-0.045,-0.0464,-0.0542,-0.0578,-0.0589,-0.0649,-0.0684,-0.0667,-0.074,-0.0743,-0.0748,-0.0745,-0.0754,-0.0762,-0.0769,-0.0674,-0.0673,-0.0673,0,0,-0.0267,-0.0285,-0.03,-0.032,-0.0372,-0.0387,-0.0413,-0.0468,-0.0513,-0.0574,-0.0594,-0.0654,-0.0711,-0.0726,-0.0734,-0.0795,-0.0779,-0.0826,-0.0863,-0.0874,-0.0881,-0.0886,-0.0822,-0.0822,-0.083,-0.083,-0.083,0,-0.0274,-0.0285,-0.0312,-0.0332,-0.0358,-0.0409,-0.0437,-0.0471,-0.0544,-0.058,-0.0618,-0.0711,-0.0738,-0.0775,-0.0808,-0.0814,-0.0795,-0.0829,-0.0883,-0.0888,-0.0893,-0.0826,-0.0825,-0.0833,-0.0833,-0.0832,-0.0832,0,-0.0286,-0.0305,-0.0328,-0.0358,-0.0388,-0.0436,-0.0477,-0.0539,-0.061,-0.064,-0.0737,-0.078,-0.0832,-0.0861,-0.0857,-0.0914,-0.0878,-0.089,-0.0858,-0.0905,-0.0831,-0.0829,-0.0838,-0.0837,-0.0836,-0.0835,0,0,-0.0287,-0.0325,-0.0336,-0.0349,-0.0417,-0.044,-0.0506,-0.0561,-0.0601,-0.0705,-0.0755,-0.0839,-0.0891,-0.0903,-0.0928,-0.095,-0.0965,-0.095,-0.0949,-0.0881,-0.0944,-0.08,-0.0782,-0.1003,-0.1004,-0.1005,-0.0864,0,-0.0297,-0.0319,-0.0351,-0.0387,-0.0402,-0.047,-0.0513,-0.0578,-0.0648,-0.0708,-0.0784,-0.0843,-0.0894,-0.094,-0.0978,-0.0969,-0.097,-0.0998,-0.0913,-0.0909,-0.0773,-0.078,-0.1008,-0.0862,-0.0861,-0.086,-0.086,0,-0.03,-0.0313,-0.035,-0.0393,-0.0412,-0.0458,-0.0546,-0.0592,-0.0673,-0.0731,-0.0819,-0.0861,-0.0918,-0.096,-0.0976,-0.1,-0.0985,-0.0971,-0.0966,-0.081,-0.0762,-0.0815,-0.0855,-0.0856,-0.0856,-0.0856,-0.0857,0,-0.0278,-0.0315,-0.0347,-0.0363,-0.0421,-0.0486,-0.0541,-0.0625,-0.0654,-0.0755,-0.0772,-0.0863,-0.0884,-0.0928,-0.0896,-0.0961,-0.086,-0.0935,-0.0774,-0.076,-0.0904,-0.09,-0.0937,-0.0937,-0.0937,-0.0938,-0.0938,0,-0.0272,-0.0297,-0.0349,-0.0368,-0.0417,-0.0485,-0.0558,-0.0621,-0.0689,-0.069,-0.0795,-0.0775,-0.0887,-0.0835,-0.086,-0.076,-0.0823,-0.0761,-0.0724,-0.0927,-0.0927,-0.0899,-0.0897,-0.0932,-0.0933,-0.0935,-0.0935,0,-0.0259,-0.0288,-0.0319,-0.0389,-0.0415,-0.0469,-0.055,-0.0572,-0.0653,-0.0655,-0.068,-0.0697,-0.0647,-0.066,-0.0653,-0.0654,-0.0606,-0.0545,-0.0666,-0.0641,-0.0518,-0.0521,-0.0414,-0.0407,-0.0402,-0.0398,-0.0394,0,-0.0256,-0.0271,-0.0327,-0.0338,-0.0393,-0.0461,-0.0489,-0.0569,-0.057,-0.0569,-0.0536,-0.0492,-0.0496,-0.0334,-0.0391,-0.0365,-0.038,-0.0341,-0.055,-0.0494,-0.047,-0.0481,-0.049,-0.0386,-0.0385,-0.0384,-0.0382,0,-0.0248,-0.0285,-0.0305,-0.0319,-0.0359,-0.0358,-0.0407,-0.0379,-0.0432,-0.0484,-0.0384,-0.0353,-0.0247,-0.0246,-0.0172,-0.0181,-0.0387,-0.0291,-0.0306,-0.0502,-0.046,-0.0443,-0.0459,-0.0365,-0.0367,-0.0369,-0.037,0,-0.0254,-0.0257,-0.0279,-0.0295,-0.0298,-0.0253,-0.0283,-0.0259,-0.026,-0.0279,-0.0215,-0.0184,-0.0199,-0.0135,-0.0072,-0.0054,-0.0136,-0.0195,-0.0218,-0.0238,-0.0254,-0.018,0.0052,0,0,0,0,0,-0.0242,-0.0232,-0.0236,-0.0222,-0.0211,-0.0215,-0.0206,-0.0226,-0.0248,-0.0162,-0.0204,-0.0116,-0.0054,-0.0023,0.0017,-0.0015,-0.013,0.0032,-0.021,-0.0266,-0.0287,-0.0326,0,0,0,0,0,0,-0.0225,-0.0233,-0.0223,-0.0154,-0.0127,-0.0097,-0.0083,-0.0096,-0.0054,-0.009,-0.0045,-0.0108,-0.0037,-0.0078,0.0018,0.0021,-0.0126,0.0029,0.003,-0.0255,-0.0273,-0.029,-0.0337,0,0,0,0,0]},{"header":{"parameterUnit":"m.s-1","parameterCategory":2,"la1":30.2991,"la2":30.254,"lo1":-89.0895,"lo2":-89.0444,"dy":0.0017,"dx":0.0017,"nx":28,"ny":28,"refTime":"2024-07-12T21:00:00:Z","depth":"4","parameterNumber":3,"parameterNumberName":"V-component_of_CURRENTS"},"data":[0,0,0,0,0,0,0,0,0,0,0,0,0,0,0,0,0,0,0,0,0,0,0,0,0,0,0,0,0,0,0,0,0,0,0,0,0,0,0,0,0,0,0,0,0,0,0,0,0,0,0,0,0,0,0,0,0,0,-0.0133,-0.0133,0,-0.0145,-0.0145,-0.0145,-0.0102,-0.0101,-0.01,-0.0099,-0.0075,-0.0075,-0.0076,0,0,0,0,0,0,0,0,0,0,0,0,0,-0.0079,-0.008,-0.0133,-0.0133,-0.0133,-0.0145,-0.0145,-0.0145,-0.0102,-0.0101,-0.0099,-0.0098,-0.0075,-0.0075,-0.0076,0,0,0,0,0,0,0,0,0,0,0,0,0,-0.0097,-0.0081,-0.0133,-0.0114,-0.0112,-0.0145,-0.0145,-0.0145,-0.0103,-0.0101,-0.0099,-0.0097,-0.0074,-0.0075,-0.0076,-0.0117,0,0,-0.0078,-0.0078,0,0,0,0,0,0,0,0,-0.0096,-0.0099,-0.0116,-0.0115,-0.0114,-0.0121,-0.0118,-0.0134,-0.0103,-0.0105,-0.0099,-0.0096,-0.0089,-0.0088,-0.0094,-0.0116,-0.0115,-0.0078,-0.0079,-0.0079,-0.0079,0,0,0,0,0,0,0,-0.0095,-0.0098,-0.0137,-0.0117,-0.0115,-0.0108,-0.0108,-0.0121,-0.0106,-0.0105,-0.0102,-0.0106,-0.0087,-0.0093,-0.0093,-0.0114,-0.0078,-0.0079,-0.0079,-0.008,-0.0152,-0.0153,0,0,0,0,0,0,-0.0098,-0.0098,-0.0136,-0.0137,-0.0101,-0.011,-0.011,-0.012,-0.0106,-0.0103,-0.0107,-0.0104,-0.0093,-0.0092,-0.0092,-0.0103,-0.0079,-0.008,-0.008,-0.015,-0.0152,-0.0154,0,0,0,0,0,0,-0.0097,-0.0101,-0.0136,-0.0118,-0.0122,-0.0113,-0.0124,-0.0121,-0.0115,-0.0109,-0.0104,-0.0103,-0.0091,-0.0091,-0.0105,-0.0102,-0.008,-0.0081,-0.0148,-0.0151,-0.0153,-0.0148,0,0,0,0,0,0,-0.0095,-0.0101,-0.0109,-0.0118,-0.0123,-0.0151,-0.0126,-0.0123,-0.0121,-0.0116,-0.0104,-0.01,-0.009,-0.0104,-0.0106,-0.0103,-0.0081,-0.0147,-0.0149,-0.0152,-0.0146,-0.0149,-0.0152,0,0,0,0,0,-0.0093,-0.011,-0.0109,-0.0114,-0.0134,-0.0152,-0.0153,-0.014,-0.0123,-0.0126,-0.0123,-0.01,-0.0122,-0.0106,-0.0108,-0.0105,-0.0145,-0.0149,-0.0152,-0.0144,-0.0149,-0.0152,0,0,0,0,0,0,-0.0088,-0.0107,-0.0107,-0.0127,-0.0138,-0.0144,-0.0148,-0.0142,-0.0144,-0.0134,-0.0122,-0.012,-0.0136,-0.0132,-0.0115,-0.0139,-0.0129,-0.0133,-0.0123,-0.0127,-0.0131,-0.0116,-0.0082,0,0,0,0,0,-0.0094,-0.011,-0.0126,-0.0141,-0.0147,-0.0149,-0.0153,-0.0147,-0.015,-0.0148,-0.014,-0.0141,-0.0157,-0.0148,-0.0166,-0.0175,-0.0166,-0.0177,-0.018,-0.0183,-0.0176,-0.0155,-0.0155,-0.0164,-0.0164,-0.0164,0,0,-0.0097,-0.011,-0.0119,-0.0141,-0.0146,-0.0167,-0.0146,-0.0154,-0.0171,-0.0148,-0.0161,-0.016,-0.0169,-0.0182,-0.0187,-0.0169,-0.0183,-0.0187,-0.0188,-0.018,-0.0159,-0.0157,-0.0156,-0.0167,-0.0166,-0.0166,0,0,-0.0109,-0.0122,-0.0137,-0.0151,-0.0164,-0.0175,-0.0177,-0.0184,-0.0183,-0.0198,-0.0195,-0.0201,-0.0203,-0.0216,-0.0222,-0.0261,-0.0214,-0.0248,-0.023,-0.0211,-0.0209,-0.0207,-0.0215,-0.0214,-0.0232,-0.0232,-0.0232,0,-0.0107,-0.0136,-0.0143,-0.0162,-0.0182,-0.018,-0.0205,-0.0215,-0.0223,-0.0231,-0.02,-0.0225,-0.0228,-0.0259,-0.0251,-0.0267,-0.0235,-0.0208,-0.021,-0.0208,-0.0206,-0.0215,-0.0213,-0.0232,-0.0232,-0.0232,-0.0232,0,-0.0131,-0.0156,-0.0166,-0.0197,-0.022,-0.024,-0.0261,-0.0272,-0.0263,-0.0266,-0.0282,-0.028,-0.0276,-0.0285,-0.0264,-0.0258,-0.0238,-0.0226,-0.0189,-0.0204,-0.0214,-0.0213,-0.0232,-0.0232,-0.0232,-0.0232,0,0,-0.0123,-0.0172,-0.0176,-0.0202,-0.0241,-0.0263,-0.03,-0.0334,-0.0346,-0.0335,-0.0346,-0.0354,-0.0311,-0.0316,-0.0297,-0.0268,-0.0233,-0.0206,-0.0205,-0.0196,-0.0176,-0.0191,-0.0191,-0.0181,-0.018,-0.018,-0.0196,0,-0.0137,-0.0179,-0.021,-0.0264,-0.0292,-0.0319,-0.0354,-0.0382,-0.0384,-0.039,-0.0384,-0.0374,-0.0336,-0.0297,-0.027,-0.0243,-0.0222,-0.0229,-0.018,-0.018,-0.0174,-0.0188,-0.0178,-0.0195,-0.0194,-0.0194,-0.0194,0,-0.0156,-0.0183,-0.0233,-0.03,-0.0314,-0.0346,-0.0399,-0.0422,-0.0441,-0.0425,-0.0404,-0.0378,-0.035,-0.03,-0.0253,-0.0235,-0.0193,-0.0177,-0.0177,-0.0186,-0.0191,-0.0175,-0.0191,-0.0191,-0.0191,-0.0191,-0.0192,0,-0.0151,-0.021,-0.0252,-0.0274,-0.034,-0.0367,-0.0391,-0.0425,-0.0437,-0.0418,-0.04,-0.0376,-0.0337,-0.0283,-0.0239,-0.0204,-0.02,-0.0167,-0.0167,-0.017,-0.015,-0.0152,-0.0136,-0.0136,-0.0136,-0.0136,-0.0135,0,-0.0166,-0.0205,-0.0246,-0.0272,-0.0318,-0.0354,-0.0391,-0.0405,-0.0412,-0.0418,-0.0384,-0.0372,-0.0307,-0.03,-0.0252,-0.0218,-0.0212,-0.0168,-0.0168,-0.0155,-0.0157,-0.0151,-0.0152,-0.0136,-0.0136,-0.0136,-0.0136,0,-0.0171,-0.0196,-0.0248,-0.0303,-0.032,-0.0343,-0.0384,-0.0402,-0.0388,-0.0389,-0.0363,-0.0347,-0.0309,-0.031,-0.0257,-0.0239,-0.0216,-0.0214,-0.0239,-0.024,-0.0193,-0.0194,-0.0184,-0.0185,-0.0185,-0.0186,-0.0186,0,-0.0182,-0.0201,-0.026,-0.028,-0.0307,-0.0337,-0.0364,-0.0378,-0.0386,-0.0377,-0.0376,-0.0346,-0.0331,-0.0303,-0.0287,-0.0259,-0.0243,-0.0245,-0.017,-0.0194,-0.0194,-0.0195,-0.0196,-0.0187,-0.0187,-0.0187,-0.0187,0,-0.02,-0.0214,-0.0255,-0.0278,-0.0311,-0.0354,-0.0377,-0.0366,-0.0369,-0.038,-0.0346,-0.032,-0.0314,-0.0283,-0.029,-0.0262,-0.0245,-0.0248,-0.0245,-0.0174,-0.0196,-0.0196,-0.0197,-0.0188,-0.0188,-0.0188,-0.0188,0,-0.0211,-0.0233,-0.0261,-0.0282,-0.0317,-0.0334,-0.0356,-0.0357,-0.0357,-0.0332,-0.033,-0.0312,-0.0312,-0.0288,-0.0294,-0.0277,-0.023,-0.0199,-0.0197,-0.0195,-0.0191,-0.0219,-0.0217,0,0,0,0,0,-0.0217,-0.0231,-0.0257,-0.0283,-0.031,-0.033,-0.0356,-0.037,-0.0365,-0.0331,-0.0317,-0.0303,-0.0271,-0.0275,-0.0249,-0.029,-0.0241,-0.026,-0.0206,-0.0197,-0.0195,-0.0188,0,0,0,0,0,0,-0.0223,-0.025,-0.0255,-0.0261,-0.0272,-0.0313,-0.0323,-0.0334,-0.0308,-0.0297,-0.0282,-0.029,-0.0271,-0.0277,-0.0245,-0.0246,-0.0205,-0.0261,-0.026,-0.0198,-0.0196,-0.0195,-0.0187,0,0,0,0,0]}]]